TELSTAR 11N

Last updated on Thu Nov 21 2024 00:02:41 GMT+0000 (Coordinated Universal Time)

1 34111U 09009A 24324.78747525 -.00000249 00000+0 00000+0 0 9992 2 34111 0.0193 50.0605 0002649 180.5686 74.6239 1.00270039 40485
UTC large
Height (km)
Speed (km/s)
/
Latitude / Longitude
Inclination (degrees)
Orbital Period (minutes)
Azimuth
Elevation
Range (km)
Doppler Factor

Next 0 passes for location: London (51.5072 / 0.1276)

Sorry there are no passes over London.